www.pogodaiklimat.ru

Погода и климат >> Архив погоды >> Украина >> Львов


АРХИВ ПОГОДЫ в Львове

Время (UTC), дата Ветер
(напр.,м/с)
 
Видим.   Явления Облачность Т
(С)
Тd
(С)
f
(%)
Тe
(С)
Тes
(С)
Комфортность P
(гПа)
Po
(гПа)
Тmin
(С)
Tmax
(С)
R
(мм)
R24
(мм)
S
(см)
09 19.09 ЮЗ 3 10 км 4/0
[Ci fib]
+22.2 +13.3 57 +25 +31 комфорт 1021.9 984.8
12 19.09 З 3 10 км 6/0
[Ci fib]
+24.0 +12.1 47 +26 +31 жарко 1020.9 984.1
15 19.09 штиль 0 10 км 6/0
[Ci fib]
+24.2 +12.1 47 +26 +27 жарко 1020.2 983.4
18 19.09 штиль 0 9000 м 3/0
[Ci fib]
+14.5 +13.4 93 +14 +14 тепло 1021.7 983.6 +25.7
21 19.09 штиль 0 3500 м дымка ясно +12.7 +12.0 96 +12 +12 по сезону 1022.3 983.9
00 20.09 штиль 0 4800 м дымка ясно +11.1 +10.3 95 +10 +10 по сезону 1022.5 983.9
03 20.09 штиль 0 1100 м дымка ясно +9.9 +9.3 96 +9 +9 по сезону 1022.5 983.7
06 20.09 штиль 0 8000 м дымка {туман} 3/0
[Ac trans]
+13.4 +12.3 93 +13 +14 тепло 1022.6 984.3 +9.5
09 20.09 З 1 10 км ясно +21.4 +15.0 67 +25 +34 комфорт 1021.6 984.4
12 20.09 СЗ 1 10 км 1/1 1000 м
[Cu hum]
+25.7 +12.3 43 +27 +35 жарко 1020.2 983.5
15 20.09 штиль 0 10 км 1/1 1000 м
[Cu hum]
+24.0 +13.3 51 +26 +27 жарко 1019.3 982.5
18 20.09 штиль 0 6000 м дым ясно +15.4 +13.8 90 +15 +15 тепло 1020.6 982.7 +26.1
21 20.09 штиль 0 2900 м дымка ясно +12.4 +10.9 91 +12 +12 тепло 1020.8 982.5
00 21.09 штиль 0 4700 м дымка 4/0
[Ac trans]
+11.3 +10.2 93 +11 +11 тепло 1020.5 982.0
03 21.09 штиль 0 6000 м дымка 4/0
[Ac trans]
+11.4 +9.4 88 +11 +11 тепло 1020.1 981.6
06 21.09 ЮВ 1 10 км 4/0
[Ac trans]
+17.0 +15.0 88 +18 +19 тепло 1019.0 981.3 +10.8
09 21.09 Ю 2 10 км ясно +21.9 +14.7 64 +25 +33 комфорт 1018.0 981.0
12 21.09 Ю 2 10 км 3/0
[Ac trans]
+25.1 +12.4 45 +27 +33 жарко 1016.1 979.5
15 21.09 Ю 3 10 км 3/0
[Ac trans]
+24.5 +13.7 51 +27 +27 жарко 1014.6 978.0
18 21.09 штиль 0 10 км 3/0
[Ac trans]
+16.4 +14.0 86 +16 +16 тепло 1014.7 977.1 +26.0
21 21.09 штиль 0 10 км ясно +14.8 +12.8 88 +14 +14 тепло 1014.5 976.7
00 22.09 штиль 0 10 км ясно +12.1 +10.4 89 +12 +12 тепло 1014.0 975.8
03 22.09 ЮВ 2 10 км ясно +12.0 +10.3 89 +11 +11 тепло 1013.4 975.2
06 22.09 СЗ 8 10 км 6/0
[Ac trans]
+16.8 +12.1 74 +15 +16 тепло 1015.6 978.0 +10.8
09 22.09 СЗ 4 10 км в посл. час ливневой дождь 9/9 450 м
[Cb calv]
+12.9 +10.8 87 +11 +12 по сезону 1020.6 982.3
12 22.09 З 2 9000 м слабый ливневой дождь 10/10 1380 м
[Cb calv]
+11.4 +9.6 89 +10 +10 холодно 1021.6 983.0
15 22.09 штиль 0 10 км слабый ливневой дождь 9/9 1260 м
[Cb calv]
+9.8 +8.8 93 +9 +9 прохладно 1020.8 982.1
18 22.09 Ю 1 10 км {ливн. осадки} 4/0
[Ci fib]
+7.7 +7.1 96 +7 +7 прохладно 1021.3 982.2 +16.8 5
21 22.09 Ю 1 10 км 6/0
[Ci fib]
+6.6 +6.2 97 +5 +5 прохладно 1021.0 981.8
00 23.09 штиль 0 10 км 8/0
[Ci fib]
+6.9 +6.0 94 +6 +6 по сезону 1021.0 981.8
03 23.09 штиль 0 10 км 6/0
[Ac trans]
+6.7 +5.8 94 +6 +6 по сезону 1020.1 980.9
06 23.09 штиль 0 10 км 9/0
[Ac trans]
+8.7 +7.2 90 +8 +9 по сезону 1019.6 980.7 +6.4
09 23.09 ЮЗ 4 10 км 6/0
[Ac trans]
+12.8 +8.8 77 +11 +14 по сезону 1019.0 980.8
12 23.09 З 5 10 км 8/8 1300 м
[Sc]
+16.7 +9.3 62 +16 +17 по сезону 1017.1 979.4
15 23.09 ЮЗ 3 10 км 6/4 1000 м
[Sc Ac trans]
+15.1 +8.9 66 +14 +15 по сезону 1015.6 977.7
18 23.09 Ю 3 10 км 9/0
[Ac trans]
+12.2 +9.7 85 +11 +11 по сезону 1012.7 974.6 +17.1
21 23.09 Ю 5 10 км слабый ливневой дождь 10/6 1000 м
[Cb calv Ac As]
+12.4 +9.7 84 +10 +10 по сезону 1008.1 970.2
00 24.09 ЮЗ 3 9000 м слабый ливневой дождь 9/5 480 м
[Cb calv Ac trans]
+13.3 +10.1 81 +12 +12 тепло 1004.1 966.5
03 24.09 ЮЗ 5 7000 м слабый ливневой дождь 10/10 1080 м
[Cb calv]
+13.0 +12.5 97 +11 +11 тепло 1003.0 965.4
06 24.09 СЗ 10
{20}
10 км в посл. час ливневой дождь 10/10 600 м
[Cb calv]
+9.7 +7.6 87 +5 +5 прохладно 1008.5 970.2 +9.6 8
09 24.09 З 5 10 км слабый ливневой дождь 10/10 400 м
[Cb calv]
+8.0 +6.7 91 +4 +4 очень
холодно
1014.5 975.7
12 24.09 З 6 10 км слабый ливневой дождь 8/8 700 м
[Cb calv]
+9.7 +7.8 88 +6 +7 очень
холодно
1015.0 976.5
15 24.09 З 5 10 км в посл. час ливневой дождь 5/3 1000 м
[Cb calv Ac trans]
+9.5 +6.2 80 +6 +7 холодно 1016.3 977.7
18 24.09 З 5 10 км {ливн. осадки} 6/0
[Ac trans]
+7.8 +4.2 78 +4 +4 холодно 1018.7 979.7 +10.4 2
21 24.09 З 4 10 км в посл. час ливневой дождь 10/10 540 м
[Cb calv]
+7.0 +5.9 93 +3 +3 холодно 1020.4 981.3
00 25.09 СЗ 4 9000 м слабый ливневой дождь 10/10 300 м
[Cb cap]
+6.1 +5.4 95 +2 +2 холодно 1022.3 983.0
03 25.09 СЗ 5 10 км {ливн. осадки} 10/10 270 м
[Cb cap]
+5.7 +4.5 92 +1 +1 холодно 1024.0 984.5
06 25.09 СЗ 5 10 км {ливн. осадки} 10/10 300 м
[Cb cap]
+5.4 +3.3 86 +1 +1 холодно 1026.3 986.7 +5.3 3
09 25.09 СЗ 5 10 км 9/9 500 м
[Sc]
+6.9 +4.4 84 +3 +3 очень
холодно
1028.6 989.1
12 25.09 СЗ 6 10 км 8/8 900 м
[Cb calv]
+10.3 +4.3 66 +7 +8 очень
холодно
1028.4 989.4
15 25.09 СЗ 7 10 км в посл. час ливневой дождь 8/8 1050 м
[Cb calv]
+9.5 +4.8 72 +6 +6 холодно 1029.5 990.3
18 25.09 СЗ 2 10 км {ливн. осадки} 4/0
[Ac trans]
+6.5 +3.7 82 +4 +4 холодно 1033.0 993.2 +10.9 0.5
21 25.09 штиль 0 10 км 4/0
[Ac trans]
+4.0 +2.5 90 +3 +3 холодно 1035.2 995.1
00 26.09 СЗ 2 10 км 4/0
[Ac trans]
+3.1 +2.1 93 -0 -0 очень
холодно
1036.7 996.4
03 26.09 СЗ 1 10 км 6/0
[Ac trans]
+1.8 +0.7 92 -0 -0 очень
холодно
1038.1 997.5

 

Местоположение метеостанции Львов (Львовская область, Украина): широта 49.82 долгота 23.95 высота над уровнем моря 323 м.

В архиве по умолчанию представлена погода в Львове за последнюю неделю. Архивные данные за месяц целиком и за предыдущие месяцы, начиная с января 2011 года, Вы можете получить, выбрав интересующий диапазон дат из раскрывающегося списка и нажав кнопку "Ввод!".


*Определитесь, кто Вы:
робот инопланетянин человек

Внимание! Время в таблицах - всемирное. Для получения местного времени необходимо прибавить поправку, которая в Львове равна 2 ч.

Смотрите также архив погоды в соседних городах и на ближайших метеорологических станциях:

Погода в Каменке-Бугской (Львовская область, Украина) (42 км)
Погода в Яворове (Львовская область, Украина) (43 км)
Погода в Межгорье (Закарпатская область, Украина) (48 км)
Погода в Раве-Русской (Львовская область, Украина) (53 км)
Погода в Мостиске (Львовская область, Украина) (57 км)
Погода в Дрогобыче (Львовская область, Украина) (61 км)
Погода в Стрые (Львовская область, Украина) (64 км)
Погода в Славском (Львовская область, Украина) (84 км)
Погода в Бережанах (Львовская область, Украина) (84 км)
Погода в Przemysl (Польша) (86 км)

Пояснения к столбцам:

Ветер - указаны скорость ветра в м/с - средняя за 10 мин, порывы в срок и между сроками (в фигурных скобках) и направление, откуда дует ветер: С - северный, СВ - северо-восточный, В - восточный, ЮВ - юго-восточный, Ю - южный, ЮЗ - юго-западный, З - западный, СЗ - северо-западный.
Видимость - горизонтальная дальность видимости в метрах или километрах. При видимости от 1 до 10 км при отсутствии осадков обычно наблюдается дымка, при ухудшении видимости до 1 км и менее - туман. В сухую погоду видимость может ухудшаться дымом, пылью или мглою.
Явления - указаны атмосферные явления, наблюдавшиеся в срок или в последний час перед сроком; фигурными скобками обозначены явления, наблюдавшиеся между сроками (за 1-3 часа до срока); квадратными скобками обозначены град или гололедные отложения с указанием их диаметра в мм.
Облачность - указаны через наклонную черту общая и нижняя облачность в баллах и высота нижней границы облаков в метрах; квадратными скобками обозначены формы облаков: Ci - перистые, Cs - перисто-слоистые, Cc - перисто-кучевые, Ac - высококучевые, As - высокослоистые, Sc - слоисто-кучевые, Ns - слоисто-дождевые, Cu - кучевые, Cb - кучево-дождевые. Подробнее классификацию облаков см. в Атласе облаков (PDF).
T - Температура воздуха - температура, измеренная на высоте 2 м над землей.
Td - Температура точки росы - температура, при понижении до которой содержащийся в воздухе водяной пар достигнет насыщения.
f - Относительная влажность воздуха - влажноcть воздуха, измеренная на высоте 2 м над землей.
Te - Эффективная температура - температура, которую ощущает одетый по сезону человек в тени. Характеристика душности погоды. При расчете учитывается влияние влажности воздуха и скорости ветра на теплоощущения человека.
Tes - Эффективная температура на солнце - температура, которую ощущает человек, с поправкой на солнечный нагрев. Характеристика знойности погоды. Зависит от высоты солнца над горизонтом, облачности и скорости ветра. Ночью, в пасмурную погоду, а также при ветре 12 м/с и более поправка равна нулю.
P - Атмосферное давление - приведенное к уровню моря атмосферное давление.
Po - Атмосферное давление - измеренное на уровне метеостанции атмосферное давление.
Tmin - Минимальная температура - минимум температуры воздуха на высоте 2 м над землей.
Tmax - Максимальная температура - максимум температуры воздуха на высоте 2 м над землей.
R - Количество осадков - Количество выпавших осадков за период времени, мм. При наведении курсора мыши на число - период времени, за который выпало указанное количество осадков.
R24 - Количество осадков - Количество выпавших осадков за 24 часа, мм.
S - Снежный покров - Высота снежного покрова, см. При наведении курсора мыши на число - состояние снежного покрова и степень покрытия местности в баллах.